Find Starlink 37634

NORAD ID: 69028 Int'l Des: 2026-101 Owner: SPXS Country: US Constellation: starlink operational
LEOCIRCULARRETROGRADE

現在のビュー

3D地球を読み込み中...

About Starlink 37634

Starlink 37634 (NORAD 69028) is a starlink constellation satellite (v2 mini) launched May 6, 2026 by SPXS of US. It operates in LEO, CIRCULAR, RETROGRADE orbit with a mass of 575.00 kg.

Starlink 37634について

説明を読み込み中...

次回通過

Passes for default location (London). Set your location on the main map for personalized predictions.

高度履歴

Loading altitude history...

軌道要素

1 69028U 26101D 26176.58710407 .00027606 00000-0 85394-3 0 9992
2 69028 97.2853 31.3719 0002004 93.5619 266.5853 15.33457764 7865
Epoch: Jun 25, 2026 • Age: 8 hours

現在のステータス

高度 470.5 km
速度 7.63 km/s
衛星直下点 -9.14°S, 150.6°E
打ち上げ日 May 6, 2026
運用期間 0.1 years
タイプ internet

技術仕様

分類 Payload
質量 575.00 kg
乾燥質量 530.00 kg
総質量 575.00 kg
長さ 0.30 m
直径 4.10 m
スパン 29.00 m
形状 Box + pan
製造者 SPXS
バスタイプ Starlink V2MO
フェーズステータス In Orbit
所有者/国 SPXS/US

Most Searched